Simultaneous Nadir Overpasses (SNOs) Predictions

Prediction of SNOs between AQUA and NPP Satellite Orbit:

Table of predicted SNOs for the next 14.0 days since TLE Epoch: 10/9/2021
Index Date (AQUA) Time (AQUA) Lat,Lon (AQUA) SZA (AQUA ) Date (NPP) Time (NPP) Lat,Lon (NPP) SZA (NPP ) Distance(km) Time Diff (sec)
1 10/10/2021 13:16:16 74.39,-144.24 104.89 10/10/2021 13:15:22 74.38,-144.32 104.97 2.63 54
2 10/10/2021 14:05:10 -76.07, 28.00 76.89 10/10/2021 14:05:32 -76.08, 28.09 76.94 2.82 22
3 10/13/2021 05:32:28 75.18, -26.35 105.00 10/13/2021 05:32:00 75.18, -26.32 105.02 0.93 28
4 10/13/2021 06:21:33 -76.29, 144.58 76.19 10/13/2021 06:22:22 -76.30, 144.62 76.25 1.02 49
5 10/15/2021 21:02:43 -64.74, -94.05 64.07 10/15/2021 21:01:29 -64.92, -94.93 63.79 45.77 74
6 10/15/2021 21:48:50 75.49, 90.41 105.60 10/15/2021 21:48:49 75.49, 90.40 105.60 0.29 1
7 10/15/2021 22:36:33 -80.03, -80.42 79.94 10/15/2021 22:37:47 -79.82, -79.68 80.10 27.98 74
8 10/18/2021 13:16:10 -74.63, 36.36 72.59 10/18/2021 13:15:19 -74.63, 36.35 72.54 0.16 51
9 10/18/2021 14:05:11 75.85,-152.67 106.14 10/18/2021 14:05:37 75.85,-152.69 106.12 0.50 26
10 10/21/2021 05:32:27 -75.18, 153.67 72.26 10/21/2021 05:32:03 -75.18, 153.68 72.24 0.50 24



Historial Predications of SNOs between AQUA and NPP
